Erzurum, Turkey

2:47 AM +03 on June 29, 2017 (GMT +0300)
Erzurum

Weather History for LTCE - June, 2013

Change the Weather History Date:

Wednesday, June 19, 2013

  Actual Average Record
Temperature  
Mean Temperature 59 °F -  
Max Temperature 68 °F 76 °F 80 °F (2006)
Min Temperature 50 °F 50 °F 33 °F (1997)
Degree Days  
Heating Degree Days 6    
Growing Degree Days 9 (Base 50)    
Moisture  
Dew Point 48 °F    
Average Humidity 69    
Maximum Humidity 94    
Minimum Humidity 37    
Precipitation  
Precipitation 0.02 in 0.05 in - ()
Sea Level Pressure  
Sea Level Pressure 30.00 in    
Wind  
Wind Speed 6 mph ()    
Max Wind Speed 20 mph    
Max Gust Speed -    
Visibility 6.6 miles    
Events Rain    
Averages and records for this station are not official NWS values.
T = Trace of Precipitation, MM = Missing Value Source: Averaged Metar Reports

Daily Weather History Graph

Daily Weather History Graph

Search for Another Location

Airport or City:

Trip Planner

Search our weather history database for the weather conditions in past years. The results will help you decide how hot, cold, wet, or windy it might be!

Date:

Astronomy

Jun. 19, 2013 Rise Set
Actual Time 4:46 AM EEST 7:46 PM EEST
Civil Twilight 4:13 AM EEST 8:19 PM EEST
Nautical Twilight 3:31 AM EEST 9:01 PM EEST
Astronomical Twilight 2:43 AM EEST 9:50 PM EEST
Moon 3:14 PM EEST (6/19) 1:17 AM EEST (6/19)
Length of Visible Light 16h 06m
Length of Day
15h 00m
Waxing Gibbous, 77% of the Moon is Illuminated
Jun 19
Waxing Gibbous
Jun 23
Full
Jun 30
Last Quarter
Jul 8
New
Jul 16
First Quarter

Hourly Weather History & Observations

Time (EEST) Temp. Dew Point Humidity Pressure Visibility Wind Dir Wind Speed Gust Speed Precip Events Conditions
12:20 AM 51.8 °F 50.0 °F 94% 29.98 in 6.2 mi WNW 4.6 mph - N/A   Scattered Clouds
12:50 AM 51.8 °F 50.0 °F 94% 29.98 in 6.2 mi West 2.3 mph - N/A Rain Light Rain Showers
1:20 AM 51.8 °F 50.0 °F 94% 29.98 in 6.2 mi West 3.5 mph - N/A Rain Light Rain Showers
1:50 AM 51.8 °F 50.0 °F 94% 29.98 in 6.2 mi West 4.6 mph - N/A Rain Light Rain Showers
2:20 AM 51.8 °F 50.0 °F 94% 29.98 in 6.2 mi Calm Calm - N/A Rain Light Rain Showers
2:50 AM 51.8 °F 48.2 °F 88% 29.98 in 6.2 mi Variable 1.2 mph - N/A Rain Light Rain Showers
3:00 AM 51 °F 49 °F 91%  in 12 mi North 2.3 mph - - Rain Light Rain Showers
3:14 AM 51.8 °F 46.4 °F 82% 29.98 in 6.2 mi East 6.9 mph - N/A   Mostly Cloudy
3:20 AM 51.8 °F 48.2 °F 88% 29.95 in 6.2 mi ENE 6.9 mph - N/A   Mostly Cloudy
3:50 AM 51.8 °F 48.2 °F 88% 29.95 in 6.2 mi NNE 9.2 mph - N/A   Mostly Cloudy
4:20 AM 51.8 °F 48.2 °F 88% 29.95 in 6.2 mi NNE 5.8 mph - N/A   Mostly Cloudy
4:50 AM 51.8 °F 48.2 °F 88% 29.98 in 6.2 mi NNE 4.6 mph - N/A   Mostly Cloudy
5:20 AM 51.8 °F 46.4 °F 82% 29.98 in 6.2 mi Variable 2.3 mph - N/A   Mostly Cloudy
5:50 AM 51.8 °F 48.2 °F 88% 29.98 in 6.2 mi ENE 4.6 mph - N/A   Mostly Cloudy
6:20 AM 53.6 °F 46.4 °F 77% 29.98 in 6.2 mi ENE 8.1 mph - N/A   Mostly Cloudy
6:50 AM 53.6 °F 48.2 °F 82% 29.98 in 6.2 mi ENE 6.9 mph - N/A   Mostly Cloudy
7:20 AM 55.4 °F 46.4 °F 72% 30.01 in 6.2 mi NE 9.2 mph - N/A   Mostly Cloudy
7:50 AM 57.2 °F 50.0 °F 77% 30.01 in 6.2 mi NE 11.5 mph - N/A   Mostly Cloudy
8:20 AM 55.4 °F 48.2 °F 77% 30.01 in 6.2 mi NE 12.7 mph - N/A   Mostly Cloudy
8:50 AM 57.2 °F 48.2 °F 72% 30.01 in 6.2 mi NE 6.9 mph - N/A   Mostly Cloudy
9:00 AM 57 °F 47 °F 60%  in 12 mi NE 6.9 mph - -   Partly Cloudy
9:20 AM 60.8 °F 50.0 °F 68% 30.01 in 6.2 mi Variable 3.5 mph - N/A   Mostly Cloudy
9:50 AM 62.6 °F 48.2 °F 59% 30.01 in 6.2 mi NNE 6.9 mph - N/A   Mostly Cloudy
10:20 AM 64.4 °F 48.2 °F 56% 30.01 in 6.2 mi Variable 3.5 mph - N/A   Scattered Clouds
10:50 AM 64.4 °F 46.4 °F 52% 30.01 in 6.2 mi NE 6.9 mph - N/A   Scattered Clouds
11:20 AM 64.4 °F 44.6 °F 49% 30.01 in 6.2 mi NE 12.7 mph - N/A   Scattered Clouds
11:30 AM 62.6 °F 48.2 °F 59% 30.01 in 6.2 mi NE 12.7 mph - N/A Rain Light Rain Showers
11:50 AM 62.6 °F 50.0 °F 63% 30.01 in 6.2 mi NW 6.9 mph - N/A Rain Light Rain Showers
12:20 PM 62.6 °F 48.2 °F 59% 30.01 in 6.2 mi West 6.9 mph - N/A Rain Light Rain Showers
12:41 PM 62.6 °F 48.2 °F 59% 30.01 in 6.2 mi West 5.8 mph - N/A   Scattered Clouds
12:50 PM 64.4 °F 48.2 °F 56% 30.01 in 6.2 mi West 4.6 mph - N/A   Scattered Clouds
1:20 PM 66.2 °F 48.2 °F 52% 29.98 in 6.2 mi Variable 4.6 mph - N/A   Scattered Clouds
1:50 PM 66.2 °F 48.2 °F 52% 29.98 in 6.2 mi NNW 8.1 mph - N/A   Mostly Cloudy
2:20 PM 66.2 °F 46.4 °F 49% 29.98 in 6.2 mi NW 9.2 mph - N/A   Scattered Clouds
2:50 PM 66.2 °F 46.4 °F 49% 29.98 in 6.2 mi NE 4.6 mph - N/A   Scattered Clouds
3:00 PM 66 °F 46 °F 37%  in 12 mi NE 4.6 mph - -   Partly Cloudy
3:20 PM 60.8 °F 53.6 °F 77% 29.98 in 6.2 mi North 17.3 mph - N/A Rain Light Rain Showers
3:37 PM 60.8 °F 50.0 °F 68% 29.98 in 6.2 mi North 16.1 mph - N/A   Mostly Cloudy
3:50 PM 64.4 °F 48.2 °F 56% 29.98 in 6.2 mi North 11.5 mph - N/A   Mostly Cloudy
4:20 PM 64.4 °F 50.0 °F 59% 29.98 in 6.2 mi North 12.7 mph - N/A Rain Light Rain Showers
4:50 PM 64.4 °F 48.2 °F 56% 29.98 in 6.2 mi NE 4.6 mph - N/A   Mostly Cloudy
5:20 PM 64.4 °F 48.2 °F 56% 30.01 in 6.2 mi North 13.8 mph - N/A   Mostly Cloudy
5:50 PM 62.6 °F 46.4 °F 55% 30.01 in 6.2 mi North 19.6 mph - N/A   Mostly Cloudy
6:20 PM 60.8 °F 44.6 °F 55% 30.01 in 6.2 mi NNW 13.8 mph - N/A   Mostly Cloudy
6:50 PM 60.8 °F 44.6 °F 55% 30.04 in 6.2 mi NNW 13.8 mph - N/A   Mostly Cloudy
7:20 PM 59.0 °F 44.6 °F 59% 30.04 in 6.2 mi North 11.5 mph - N/A   Mostly Cloudy
7:50 PM 57.2 °F 44.6 °F 63% 30.04 in 6.2 mi North 4.6 mph - N/A   Mostly Cloudy
8:20 PM 59.0 °F 44.6 °F 59% 30.04 in 6.2 mi North 6.9 mph - N/A   Mostly Cloudy
8:50 PM 57.2 °F 46.4 °F 67% 30.04 in 6.2 mi Variable 1.2 mph - N/A   Scattered Clouds
9:00 PM 57 °F 46 °F 56%  in 12 mi South 1.2 mph - -   Partly Cloudy
9:20 PM 57.2 °F 46.4 °F 67% 30.06 in 6.2 mi NNE 9.2 mph - N/A   Scattered Clouds
9:50 PM 57.2 °F 48.2 °F 72% 30.06 in 6.2 mi NE 6.9 mph - N/A   Partly Cloudy
10:20 PM 55.4 °F 48.2 °F 77% 30.06 in 6.2 mi NE 6.9 mph - N/A   Partly Cloudy
10:50 PM 55.4 °F 48.2 °F 77% 30.06 in - Variable 1.2 mph - N/A   Clear
11:20 PM 57.2 °F 44.6 °F 63% 30.06 in - NNW 5.8 mph - N/A   Clear
11:50 PM 55.4 °F 42.8 °F 63% 30.06 in - NW 4.6 mph - N/A   Clear